Regional Weather Roundup
Issued by NWS

Home | Current Version | Previous Version | Text Only | Print | Product List | Glossary Off
Versions: 1 2 3 4 5 6 7 8 9 10 11 12 13 14 15 16 17 18 19 20 21 22 23 24 25 26 27 28 29 30 31 32 33 34 35 36 37 38 39 40 41 42 43 44 45 46 47 48 49 50

000
ASUS43 KDTX 222010
RWRMI
MICHIGAN HOURLY REGIONAL WEATHER ROUNDUP
NATIONAL WEATHER SERVICE DETROIT/PONTIAC MI
400 PM EDT WED OCT 22 2014

NOTE: "FAIR" INDICATES FEW OR NO CLOUDS BELOW 12,000 FEET WITH NO
SIGNIFICANT WEATHER AND/OR OBSTRUCTION TO VISIBILITY.

MIZ047>049-052>055-059>063-066>070-074>076-081>083-222100-
SOUTHEAST LOWER MICHIGAN

CITY           SKY/WX    TMP DP  RH WIND       PRES   REMARKS
ADRIAN         PTSUNNY   51  40  65 W5        30.31F
ALMA           CLOUDY    47  39  71 E3        30.34F
ANN ARBOR      MOSUNNY   56  39  53 NW8       30.29S
BAD AXE        CLOUDY    48  41  77 NE10      30.33R
CARO           CLOUDY    49  40  69 N5        30.32S
DETROIT CITY   SUNNY     58  40  51 N9        30.29S
DETROIT        MOSUNNY   55  40  56 NW9       30.29S
FLINT          PTSUNNY   52  40  63 N7        30.33F
GROSSE ILE     MOSUNNY   57  41  54 N9        30.27S
HILLSDALE      CLOUDY    48  41  76 N3        30.31S
HOWELL         PTSUNNY   48  39  70 N3        30.31S

CITY           SKY/WX    TMP DP  RH WIND       PRES   REMARKS
JACKSON        CLOUDY    49  39  68 N7        30.31F
LAMBERTVILLE   PTSUNNY   55  41  58 NW3       30.29F
LANSING        CLOUDY    47  38  71 N6        30.34F
LAPEER         CLOUDY    51  39  63 N7        30.31S
MASON          CLOUDY    47  40  74 NW8       30.32S
MONROE         MOSUNNY   55  41  58 N5        30.27S
MT. CLEMENS    PTSUNNY   55  41  60 N9        30.26S
PONTIAC        MOSUNNY   52  38  58 N7        30.29S
PORT HOPE        N/A     49  39  68 CALM      30.32S
PORT HURON     SUNNY     52  41  66 NE9       30.30R
TRI CITIES     CLOUDY    49  39  68 NE6       30.35F
TROY           PTSUNNY   56  39  53 N9        30.30F
SAGINAW HB     CLOUDY    48  39  71 N7        30.33S
$$
MIZ043>046-050>051-056>058-064>065-071>073-077>080-222100-
SOUTHWEST LOWER MICHIGAN

CITY           SKY/WX    TMP DP  RH WIND       PRES   REMARKS
BATTLE CREEK   CLOUDY    48  38  68 NE9       30.32F
BENTON HARBOR  SUNNY     50  38  63 VRB6      30.32F
BIG RAPIDS     SUNNY     48  36  62 SE3       30.33S
COLDWATER      CLOUDY    47  40  77 NE6       30.32F
FREMONT        FAIR      51  29  41 SE3       30.32F
HOLLAND        SUNNY     55  34  45 NE6       30.33F
GRAND RAPIDS   MOSUNNY   50  39  66 E7        30.33F
IONIA          CLOUDY    47  38  70 NE3       30.32F
KALAMAZOO      PTSUNNY   48  38  68 NE5       30.33F
LUDINGTON      SUNNY     49  37  62 NW7       30.34F
MARSHALL       CLOUDY    46  38  74 NE5       30.31F
MOUNT PLEASANT CLOUDY    48  37  65 S3        30.33F
MUSKEGON       SUNNY     52  36  54 W7        30.33F
SOUTH HAVEN    SUNNY     52  39  60 NW7       30.31F
$$
MIZ016>042-222100-
NORTHERN LOWER MICHIGAN

CITY           SKY/WX    TMP DP  RH WIND       PRES   REMARKS
ALPENA         SUNNY     52  32  46 N6        30.34F
BEAVER ISLAND  SUNNY     47  36  65 CALM      30.35F
BELLAIRE       SUNNY     48  33  54 W3        30.35S
CADILLAC       SUNNY     45  34  64 CALM      30.32S
CHARLEVOIX     SUNNY     47  38  71 W7        30.38F
FRANKFORT      SUNNY     48  35  60 NW5       30.35S
GAYLORD        SUNNY     50  30  46 CALM      30.32F
GRAYLING       SUNNY     46  34  61 CALM      30.34F
HARBOR SPRINGS SUNNY     51  31  47 CALM      30.34S
HOUGHTON LAKE  SUNNY     48  35  60 CALM      30.33F
MANISTEE       SUNNY     46  34  61 NW8       30.35S
OSCODA         SUNNY     48  37  65 E9        30.33S
PELLSTON       SUNNY     51  32  48 S5        30.34F
ROGERS CITY    SUNNY     45  37  76 N6        30.37S
TRAVERSE CITY  SUNNY     48  30  49 VRB3      30.34F
$$
MIZ007>008-015-222100-
EASTERN UPPER MICHIGAN

CITY           SKY/WX    TMP DP  RH WIND       PRES   REMARKS
KINROSS        SUNNY     48  30  49 SE3       30.34F
MACKINAC ISLAN SUNNY     45  33  61 E5        30.35S
NEWBERRY       SUNNY     48  33  55 S7        30.33F
S. S. MARIE    SUNNY     50  27  40 VRB6      30.34F
MUNISING         N/A     54  34  46 S10G17    30.29F
$$
MIZ004>006-011>014-085-222100-
CENTRAL UPPER MICHIGAN

CITY           SKY/WX    TMP DP  RH WIND       PRES   REMARKS
MANISTIQUE     MOSUNNY   46  36  68 S6        30.34F
ESCANABA       SUNNY     46  34  61 SE9       30.33F
MENOMINEE      SUNNY     48  36  61 SE10      30.31F
SAWYER-GWINN   SUNNY     50  36  57 S12       30.28F
$$
MIZ001>003-009>011-084-222100-
WESTERN UPPER MICHIGAN

CITY           SKY/WX    TMP DP  RH WIND       PRES   REMARKS
IRON MOUNTAIN  SUNNY     51  32  48 SE13      30.27F
HOUGHTON       SUNNY     50  34  54 SE13      30.21F
COPPER HARBOR    N/A     49  37  63 SW9       30.23F
IRONWOOD       MOSUNNY   57  32  38 S13G20    30.15F
$$

ABBREVIATIONS USED IN REMARKS
   TC - TEMPERATURE IN CELSIUS
  WCI - WIND CHILL INDEX
   HX - HEAT INDEX
  VSB - VISIBILITY




USA.gov is the U.S. government's official web portal to all federal, state and local government web resources and services.